Regional Weather Roundup
Issued by NWS

Home | Current Version | Previous Version | Text Only | Print | Product List | Glossary On
Versions: 1 2 3 4 5 6 7 8 9 10 11 12 13 14 15 16 17 18 19 20 21 22 23 24 25 26 27 28 29 30 31 32 33 34 35 36 37 38 39 40 41 42 43 44 45 46 47 48 49 50
000
ASUS43 KMPX 032110
RWRMN
WEATHER ROUNDUP FOR MINNESOTA
NATIONAL WEATHER SERVICE TWIN CITIES/CHANHASSEN MN
300 PM CST SAT DEC 03 2016


NOTE: "FAIR" INDICATES FEW OR NO CLOUDS BELOW 12,000 FEET WITH NO
SIGNIFICANT WEATHER AND/OR OBSTRUCTIONS TO VISIBILITY. N/A MEANS
CURRENT SKY AND/OR WEATHER CONDITIONS ARE NOT AVAILABLE.

MNZ060>063-068>070-032200-
   Twin Cities Metro

CITY           SKY/WX    TMP DP  RH WIND       PRES   REMARKS
TWIN CITIES    MOSUNNY   32  19  58 S10       30.24R WCI  24
ST PAUL        MOSUNNY   31  21  66 S12       30.25S WCI  22
CRYSTAL        SUNNY     32  18  56 S10       30.22S WCI  24
BLAINE         MOSUNNY   34  23  64 S8        30.22S WCI  27
LAKEVILLE      PTSUNNY   30  23  74 S8        30.24R WCI  23
EDEN PRAIRIE   MOSUNNY   33  21  61 S8        30.22S WCI  26
SOUTH ST PAUL  MOSUNNY   32  20  62 S9        30.25R WCI  24
LAKE ELMO      FAIR      32  23  69 SE6       30.24F WCI  26
$$
MNZ001>005-007-008-013>017-022>024-027-028-032200-
   Northwest Minnesota

CITY           SKY/WX    TMP DP  RH WIND       PRES   REMARKS
BEMIDJI        PTSUNNY   26  19  76 SE9       30.11F WCI  16
HALLOCK        CLOUDY    28  25  86 S21       30.06F WCI  15
ROSEAU         CLOUDY    27  21  80 SE13      30.10S WCI  16
WARROAD        CLOUDY    27  21  80 S8        30.11F WCI  18
THIEF RVR FALL PTSUNNY   28  22  78 SE14      30.09F WCI  17
CROOKSTON      CLOUDY    30  23  74 S14       30.08F WCI  20
FOSSTON        SUNNY     30  21  69 SE9       30.09F WCI  22
DETROIT LAKES  CLOUDY    28  23  80 SE12      30.07F WCI  18
MOORHEAD       MOSUNNY   32  25  74 SE17      30.07F WCI  21
PARK RAPIDS    SUNNY     27  16  63 SE12      30.10F WCI  17
$$
MNZ006-009>011-018-025>026-032200-
   North Central Minnesota

CITY           SKY/WX    TMP DP  RH WIND       PRES   REMARKS
BAUDETTE       CLOUDY    26  19  74 SE12G20   30.12F WCI  16
FLAG ISLAND    CLOUDY    28  23  80 S21       30.10F WCI  15
INTL FALLS     CLOUDY    26  18  71 VRB5      30.15F WCI  20
WASKISH        CLOUDY    27  21  80 SE8       30.13F WCI  18
BIG FORK       CLOUDY    27  19  74 S9        30.16S WCI  17
LONGVILLE      MOSUNNY   27  19  74 S9        30.14F WCI  17
GRAND RAPIDS   CLOUDY    27  20  75 S8        30.17F WCI  19
CRANE LAKE     CLOUDY    27  19  74 S6        30.19F WCI  20
ORR            CLOUDY    27  18  69 S7        30.14F WCI  19
COOK           CLOUDY    27  19  74 S5        30.17F WCI  21
$$
MNZ012-019>021-037-032200-
   Northeast Minnesota

CITY           SKY/WX    TMP DP  RH WIND       PRES   REMARKS
DULUTH         CLOUDY    29  23  78 SE7       30.18F WCI  22
ELY            CLOUDY    27  25  93 S3        30.18F
HIBBING        CLOUDY    27  19  72 VRB5      30.17F WCI  22
EVELETH        MOCLDY    29  20  70 S9        30.18F WCI  20
DULUTH HARBOR  CLOUDY    32  25  74 CALM      30.24F
TWO HARBORS    CLOUDY    34  25  69 SW7       30.19F WCI  28
SILVER BAY     CLOUDY    30  25  80 CALM      30.19F
GRAND MARAIS     N/A     34  26  72 SW7       30.24S WCI  28
G MARAIS ARPRT CLOUDY    27  19  74 CALM      30.18S
$$
MNZ029>031-032-039>041-046>048-054>057-064-032200-
   West Central Minnesota

CITY           SKY/WX    TMP DP  RH WIND       PRES   REMARKS
FERGUS FALLS   CLOUDY    30  25  80 SE15      30.13F WCI  19
WHEATON        LGT SNOW N/A N/A N/A SE21      30.09F
MORRIS         PTSUNNY   32  27  80 SE18      30.11S WCI  20
ALEXANDRIA     CLOUDY    30  24  78 SE12      30.12F WCI  20
ELBOW LAKE     CLOUDY    31  26  83 E15       30.11S WCI  20
WADENA         MOSUNNY   27  19  74 SE13      30.11S WCI  16
GLENWOOD       CLOUDY    30  25  80 SE13      30.14S WCI  20
APPLETON       CLOUDY    34  27  75 SE12G17   30.11F WCI  25
BENSON         FLURRIES  32  27  80 S14       30.14S WCI  22
ORTONVILLE     PTSUNNY   34  27  75 SE14G23   30.08F WCI  24
MADISON        MOSUNNY   37  34  87 SE14      30.10F
WILLMAR        CLOUDY    32  28  86 SE12G18   30.17S WCI  23
$$
MNZ033>034-036-042>043-049>051-058-059-032200-
   Central Minnesota

CITY           SKY/WX    TMP DP  RH WIND       PRES   REMARKS
ST CLOUD       SUNNY     30  22  72 SE12      30.19S WCI  20
PAYNESVILLE    CLOUDY    31  24  74 SE10G16   30.17F WCI  23
AITKIN         CLOUDY    30  19  64 S7        30.15F WCI  23
PINE RIVER     MOSUNNY   25  19  80 SE7       30.16F WCI  17
BRAINERD       MOSUNNY   27  19  72 S10       30.15F WCI  17
STAPLES        SUNNY     27  19  74 SE7       30.14R WCI  19
LONG PRAIRIE   PTSUNNY   28  21  74 E9G17     30.15S WCI  20
LITTLE FALLS   SUNNY     30  19  64 SE9       30.18R WCI  22
LITCHFIELD     CLOUDY    32  27  80 SE7       30.19S WCI  26
BUFFALO        PTSUNNY   31  20  64 SE7       30.23R WCI  24
MAPLE LAKE     PTSUNNY   32  24  73 S7        30.22R WCI  25
$$
MNZ037-044-045-052-053-032200-
   East Central Minnesota

CITY           SKY/WX    TMP DP  RH WIND       PRES   REMARKS
PRINCETON      MOSUNNY   32  21  64 E8        30.20F WCI  25
MORA           CLOUDY    32  21  64 S7        30.22S WCI  26
CAMBRIDGE      PTSUNNY   32  21  64 SE5       30.19F WCI  27
RUSH CITY      CLOUDY    32  21  64 SE6       30.22S WCI  26
MOOSE LAKE     CLOUDY    32  21  64 SW5       30.18S WCI  27
HINCKLEY       CLOUDY    32  23  69 S6        30.20F WCI  26
CLOQUET        CLOUDY    28  19  69 S3        30.18F
MCGREGOR       CLOUDY    30  21  69 S7        30.18F WCI  23
$$
MNZ071>073-080-081-089-090-097-098-032200-
   Southwest Minnesota

CITY           SKY/WX    TMP DP  RH WIND       PRES   REMARKS
MONTEVIDEO     CLOUDY    34  28  80 S13       30.15F WCI  25
GRANITE FALLS  MOSUNNY   37  31  82 SE16      30.15F
CANBY          PTSUNNY   37  32  81 S5        30.11F
MARSHALL       MOSUNNY   37  31  78 S13       30.12F
REDWOOD FALLS  CLOUDY    35  28  75 SE16      30.15F WCI  25
OLIVIA         CLOUDY    34  30  86 SE14      30.15F WCI  24
PIPESTONE      LGT SNOW  34  32  93 S17       30.09F WCI  23
WINDOM         CLOUDY    37  30  75 S12G17    30.15S
WORTHINGTON    CLOUDY    35  31  85 S17       30.14F WCI  25
JACKSON        CLOUDY    34  30  86 S13       30.17S WCI  25
TRACY          PTSUNNY   37  32  83 S13       30.12F
SLAYTON        CLOUDY    34  31  90 S16G24    30.13S WCI  24
$$
MNZ065>067-074>077-082>085-091>093-032200-
   South Central Minnesota

CITY           SKY/WX    TMP DP  RH WIND       PRES   REMARKS
MANKATO        MOSUNNY   32  25  75 S9        30.21F WCI  24
NEW ULM        CLOUDY    34  27  75 S13       30.19F WCI  25
ST JAMES       MOSUNNY   34  28  80 SE10      30.19F WCI  26
FAIRMONT       CLOUDY    36  31  82 SE8       30.19F
GLENCOE        CLOUDY    33  28  81 SE7       30.20F WCI  27
FARIBAULT      CLOUDY    32  25  74 SE6       30.24S WCI  26
OWATONNA       CLOUDY    32  25  74 SE7       30.23F WCI  26
WASECA         CLOUDY    32  27  80 S7        30.23F WCI  26
ALBERT LEA     CLOUDY    37  28  70 S6        30.22F
$$
MNZ078>079-086>088-094>096-032200-
   Southeast Minnesota

CITY           SKY/WX    TMP DP  RH WIND       PRES   REMARKS
ROCHESTER      PTSUNNY   31  24  75 S7        30.24F WCI  24
RED WING       CLOUDY    32  19  59 S6        30.25S WCI  26
STANTON        MOSUNNY   32  23  70 S8        30.24R WCI  25
DODGE CENTER   CLOUDY    30  23  74 S3        30.23F
WINONA         CLOUDY    34  25  69 CALM      30.27F
AUSTIN         CLOUDY    32  25  74 S3        30.23F
PRESTON        CLOUDY    31  22  67 S6        30.25S WCI  25
$$
ABBREVIATIONS USED IN REMARKS
   TC - TEMPERATURES IN CELSIUS
  WCI - WIND CHILL INDEX
   HX - HEAT INDEX
  VSB - VISIBILITY
$$



USA.gov is the U.S. government's official web portal to all federal, state and local government web resources and services.